カタログに戻る

CZ-6A DEB

運用中PO
NORAD 64655·DEBRIS·🇨🇳 China

打ち上げ Aug 6, 2024 から Taiyuan Satellite Launch Center

Loading…

次のパス (今後24時間)

TLE

最新Source: Space-Track

元期: Sep 13, 2026, 11:21 UTC

1 64655U 24140AEV 26256.47356268  .00002537  00000-0  91056-3 0  9990
2 64655  89.1116 274.0377 0071872 292.7700  66.5914 14.32220380 97176

AllMySatでCZ-6A DEBをリアルタイム追跡

Download on the App Store